Time,TemperatureF,DewpointF,PressureIn,WindDirection,WindDirectionDegrees,WindSpeedMPH,WindSpeedGustMPH,Humidity,HourlyPrecipIn,Conditions,Clouds,dailyrainin,SoftwareType,DateUTC
2013-01-06 13:02:00,50.0,45.0,30.16,NW,309,0.0,-999.0,82,-99.99,,,-99.99,,2013-01-06 21:02:00,
2013-01-06 13:12:00,50.0,45.0,30.16,NW,309,0.0,-999.0,82,-99.99,,,-99.99,,2013-01-06 21:12:00,
2013-01-06 13:22:00,51.0,45.0,30.16,NW,309,0.0,-999.0,80,-99.99,,,-99.99,,2013-01-06 21:22:00,
2013-01-06 13:42:00,52.0,45.0,30.16,NW,309,0.0,-999.0,76,-99.99,,,-99.99,,2013-01-06 21:42:00,
2013-01-06 13:52:00,52.0,45.0,30.16,NW,309,0.0,-999.0,76,-99.99,,,-99.99,,2013-01-06 21:52:00,
2013-01-06 14:02:00,54.0,46.0,30.16,NW,309,0.0,-999.0,73,-99.99,,,-99.99,,2013-01-06 22:02:00,
2013-01-06 14:12:00,54.0,46.0,30.16,NW,309,0.0,-999.0,73,-99.99,,,-99.99,,2013-01-06 22:12:00,
2013-01-06 14:22:00,55.0,47.0,30.15,West,281,0.0,-999.0,73,-99.99,,,-99.99,,2013-01-06 22:22:00,
2013-01-06 14:33:00,55.0,45.0,30.15,NW,306,0.0,-999.0,69,-99.99,,,-99.99,,2013-01-06 22:33:00,
2013-01-06 14:42:00,55.0,45.0,30.15,NW,306,0.0,-999.0,69,-99.99,,,-99.99,,2013-01-06 22:42:00,
2013-01-06 14:52:00,55.0,46.0,30.15,NW,306,0.0,-999.0,71,-99.99,,,-99.99,,2013-01-06 22:52:00,
2013-01-06 15:02:00,56.0,46.0,30.15,NW,310,0.0,-999.0,69,-99.99,,,-99.99,,2013-01-06 23:02:00,
2013-01-06 15:12:00,56.0,46.0,30.15,NW,310,0.0,-999.0,69,-99.99,,,-99.99,,2013-01-06 23:12:00,
2013-01-06 15:22:00,56.0,46.0,30.15,South,178,0.0,-999.0,69,-99.99,,,-99.99,,2013-01-06 23:22:00,
2013-01-06 15:32:00,55.0,45.0,30.15,SSE,151,0.0,-999.0,70,-99.99,,,-99.99,,2013-01-06 23:32:00,
2013-01-06 15:42:00,55.0,45.0,30.15,SSE,151,0.0,-999.0,70,-99.99,,,-99.99,,2013-01-06 23:42:00,
2013-01-06 15:52:00,56.0,46.0,30.15,SE,136,0.0,-999.0,69,-99.99,,,-99.99,,2013-01-06 23:52:00,
2013-01-06 16:02:00,56.0,46.0,30.15,SE,144,0.0,-999.0,70,-99.99,,,-99.99,,2013-01-07 00:02:00,
2013-01-06 16:12:00,56.0,46.0,30.15,SE,144,0.0,-999.0,70,-99.99,,,-99.99,,2013-01-07 00:12:00,
2013-01-06 16:22:00,55.0,46.0,30.15,SE,144,0.0,-999.0,71,-99.99,,,-99.99,,2013-01-07 00:22:00,
2013-01-06 16:32:00,54.0,46.0,30.16,SE,142,1.0,-999.0,73,-99.99,,,-99.99,,2013-01-07 00:32:00,
2013-01-06 16:42:00,54.0,46.0,30.16,SE,142,1.0,-999.0,73,-99.99,,,-99.99,,2013-01-07 00:42:00,
2013-01-06 16:52:00,53.0,45.0,30.16,SE,142,1.0,-999.0,74,-99.99,,,-99.99,,2013-01-07 00:52:00,
2013-01-06 17:02:00,52.0,45.0,30.15,SE,142,0.0,-999.0,76,-99.99,,,-99.99,,2013-01-07 01:02:00,
2013-01-06 17:12:00,52.0,45.0,30.15,SE,142,0.0,-999.0,76,-99.99,,,-99.99,,2013-01-07 01:12:00,
2013-01-06 17:22:00,52.0,45.0,30.15,SE,142,0.0,-999.0,77,-99.99,,,-99.99,,2013-01-07 01:22:00,
2013-01-06 17:32:00,50.0,44.0,30.14,SE,142,0.0,-999.0,79,-99.99,,,-99.99,,2013-01-07 01:32:00,
2013-01-06 17:42:00,50.0,44.0,30.14,SE,142,0.0,-999.0,79,-99.99,,,-99.99,,2013-01-07 01:42:00,
2013-01-06 17:53:00,49.0,43.0,30.14,SE,142,0.0,-999.0,81,-99.99,,,-99.99,,2013-01-07 01:53:00,
2013-01-06 18:01:00,48.0,43.0,30.14,SE,142,0.0,-999.0,84,-99.99,,,-99.99,,2013-01-07 02:01:00,
2013-01-06 18:11:00,48.0,43.0,30.14,SE,142,0.0,-999.0,84,-99.99,,,-99.99,,2013-01-07 02:11:00,
2013-01-06 18:22:00,47.0,43.0,30.15,SE,142,0.0,-999.0,85,-99.99,,,-99.99,,2013-01-07 02:22:00,
2013-01-06 18:32:00,47.0,43.0,30.15,SE,142,0.0,-999.0,85,-99.99,,,-99.99,,2013-01-07 02:32:00,
2013-01-06 18:42:00,47.0,43.0,30.15,SE,142,0.0,-999.0,85,-99.99,,,-99.99,,2013-01-07 02:42:00,
2013-01-06 18:52:00,45.0,41.0,30.15,SE,142,0.0,-999.0,87,-99.99,,,-99.99,,2013-01-07 02:52:00,
2013-01-06 19:02:00,45.0,42.0,30.16,SE,142,0.0,-999.0,89,-99.99,,,-99.99,,2013-01-07 03:02:00,
2013-01-06 19:12:00,45.0,42.0,30.16,SE,142,0.0,-999.0,89,-99.99,,,-99.99,,2013-01-07 03:12:00,
2013-01-06 19:22:00,44.0,41.0,30.17,SE,142,0.0,-999.0,90,-99.99,,,-99.99,,2013-01-07 03:22:00,
2013-01-06 19:32:00,43.0,41.0,30.17,SE,142,0.0,-999.0,91,-99.99,,,-99.99,,2013-01-07 03:32:00,
2013-01-06 19:42:00,43.0,41.0,30.17,SE,142,0.0,-999.0,91,-99.99,,,-99.99,,2013-01-07 03:42:00,
2013-01-06 19:52:00,43.0,40.0,30.17,SE,142,0.0,-999.0,90,-99.99,,,-99.99,,2013-01-07 03:52:00,
2013-01-06 20:02:00,42.0,40.0,30.18,SE,142,0.0,-999.0,91,-99.99,,,-99.99,,2013-01-07 04:02:00,
2013-01-06 20:12:00,42.0,40.0,30.18,SE,142,0.0,-999.0,91,-99.99,,,-99.99,,2013-01-07 04:12:00,
2013-01-06 20:22:00,41.0,39.0,30.17,SE,142,0.0,-999.0,91,-99.99,,,-99.99,,2013-01-07 04:22:00,
2013-01-06 20:32:00,41.0,39.0,30.17,SE,142,0.0,-999.0,92,-99.99,,,-99.99,,2013-01-07 04:32:00,
2013-01-06 20:42:00,41.0,39.0,30.17,SE,142,0.0,-999.0,92,-99.99,,,-99.99,,2013-01-07 04:42:00,
2013-01-06 20:52:00,41.0,39.0,30.18,SE,142,0.0,-999.0,93,-99.99,,,-99.99,,2013-01-07 04:52:00,
2013-01-06 21:02:00,40.0,38.0,30.19,SE,142,0.0,-999.0,92,-99.99,,,-99.99,,2013-01-07 05:02:00,
2013-01-06 21:12:00,40.0,38.0,30.19,SE,142,0.0,-999.0,92,-99.99,,,-99.99,,2013-01-07 05:12:00,
2013-01-06 21:22:00,40.0,38.0,30.20,SE,142,0.0,-999.0,92,-99.99,,,-99.99,,2013-01-07 05:22:00,
2013-01-06 21:32:00,40.0,38.0,30.20,SE,142,0.0,-999.0,92,-99.99,,,-99.99,,2013-01-07 05:32:00,
2013-01-06 21:42:00,40.0,38.0,30.20,SE,142,0.0,-999.0,92,-99.99,,,-99.99,,2013-01-07 05:42:00,
2013-01-06 21:52:00,39.0,37.0,30.19,SE,142,0.0,-999.0,93,-99.99,,,-99.99,,2013-01-07 05:52:00,
2013-01-06 22:02:00,39.0,37.0,30.19,SE,142,0.0,-999.0,93,-99.99,,,-99.99,,2013-01-07 06:02:00,
2013-01-06 22:12:00,39.0,37.0,30.19,SE,142,0.0,-999.0,93,-99.99,,,-99.99,,2013-01-07 06:12:00,
2013-01-06 22:22:00,39.0,37.0,30.18,SE,142,0.0,-999.0,94,-99.99,,,-99.99,,2013-01-07 06:22:00,
2013-01-06 22:32:00,38.0,36.0,30.18,SE,142,0.0,-999.0,94,-99.99,,,-99.99,,2013-01-07 06:32:00,
2013-01-06 22:42:00,38.0,36.0,30.18,SE,142,0.0,-999.0,94,-99.99,,,-99.99,,2013-01-07 06:42:00,
2013-01-06 22:52:00,38.0,36.0,30.19,SE,142,0.0,-999.0,94,-99.99,,,-99.99,,2013-01-07 06:52:00,
2013-01-06 23:02:00,38.0,36.0,30.19,SE,142,0.0,-999.0,94,-99.99,,,-99.99,,2013-01-07 07:02:00,
2013-01-06 23:11:00,38.0,36.0,30.19,SE,142,0.0,-999.0,94,-99.99,,,-99.99,,2013-01-07 07:11:00,
2013-01-06 23:22:00,37.0,35.0,30.19,SE,142,0.0,-999.0,94,-99.99,,,-99.99,,2013-01-07 07:22:00,
2013-01-06 23:32:00,37.0,35.0,30.19,SE,142,0.0,-999.0,94,-99.99,,,-99.99,,2013-01-07 07:32:00,
2013-01-06 23:42:00,37.0,35.0,30.19,SE,142,0.0,-999.0,94,-99.99,,,-99.99,,2013-01-07 07:42:00,
2013-01-06 23:52:00,36.0,34.0,30.20,SE,142,0.0,-999.0,94,-99.99,,,-99.99,,2013-01-07 07:52:00,